Simultaneous Nadir Overpasses (SNOs) Predictions

Prediction of SNOs between NOAA-19 and NPP Satellite Orbit:

Table of predicted SNOs for the next 14.0 days since TLE Epoch: 4/5/2013
Index Date (NOAA-19) Time (NOAA-19) Lat,Lon (NOAA-19) SZA (NOAA-19 ) Date (NPP) Time (NPP) Lat,Lon (NPP) SZA (NPP ) Distance(km) Time Diff (sec)
1 04/13/2013 00:39:44 80.88, 118.24 75.41 04/13/2013 00:40:53 80.89, 118.15 75.38 1.54 69
2 04/13/2013 01:30:44 -80.87, -74.16 104.66 04/13/2013 01:31:37 -80.87, -74.28 104.68 2.05 53
3 04/13/2013 02:21:49 80.89, 92.60 75.40 04/13/2013 02:22:23 80.89, 92.76 75.36 2.86 34
4 04/13/2013 03:12:48 -80.86, -99.45 104.72 04/13/2013 03:13:06 -80.86, -99.31 104.75 2.45 18
5 04/13/2013 04:03:50 80.84, 68.40 75.18 04/13/2013 04:03:50 80.83, 68.44 75.17 0.75 0
6 04/13/2013 04:54:50 -80.82,-124.01 104.89 04/13/2013 04:54:34 -80.82,-123.99 104.89 0.37 16
7 04/13/2013 05:45:52 80.79, 43.83 75.01 04/13/2013 05:45:18 80.80, 43.76 75.03 1.37 34
8 04/13/2013 06:36:51 -80.78,-148.59 105.06 04/13/2013 06:36:01 -80.78,-148.68 105.02 1.70 50




NCC Satellite Simultaneous Nadir Overpasses (SNOs) Prediction Service
